Photometre #349[Standard_N] Amsterdam_Island AOT

File : 20190927_349.hum

27/09/2019,01:19:00,TEMP=10.8,BA=5.72,STAT.A=Abs.,ExtBa=13.75
27/09/2019,01:22:14,TEMP=11.0,BA=5.72,STAT.A=Abs.,ExtBa=13.70
27/09/2019,01:26:01,TEMP=11.3,BA=5.72,STAT.A=Abs.,ExtBa=13.63
27/09/2019,01:30:31,TEMP=11.5,BA=5.72,STAT.A=Abs.,ExtBa=13.59
27/09/2019,01:35:55,TEMP=11.6,BA=5.72,STAT.A=Abs.,ExtBa=13.55
27/09/2019,01:42:35,TEMP=11.7,BA=5.72,STAT.A=Abs.,ExtBa=13.55
27/09/2019,01:50:59,TEMP=12.0,BA=5.72,STAT.B=Abs.,ExtBa=13.59
27/09/2019,01:55:00,TEMP=12.1,BA=5.72,STAT.A=Abs.,ExtBa=13.54
27/09/2019,01:59:29,TEMP=12.2,BA=5.72,STAT.A=Abs.,ExtBa=13.50
27/09/2019,02:04:25,TEMP=12.3,BA=5.72,STAT.b=Abs.
27/09/2019,02:10:16,TEMP=12.1,BA=5.72,STAT.A=Abs.,ExtBa=13.55
27/09/2019,02:16:43,TEMP=12.3,BA=5.72,STAT.b=Abs.
27/09/2019,02:24:26,TEMP=12.6,BA=5.72,STAT.A=Abs.,ExtBa=13.64
27/09/2019,02:33:16,TEMP=12.8,BA=5.72,STAT.b=Abs.
27/09/2019,02:44:03,TEMP=12.4,BA=5.72,STAT.A=Abs.,ExtBa=13.70
27/09/2019,02:57:13,TEMP=13.0,BA=5.72,STAT.A=Abs.,ExtBa=13.68
27/09/2019,03:13:22,TEMP=13.6,BA=5.72,STAT.B=Abs.,ExtBa=13.72
27/09/2019,03:26:21,TEMP=13.8,BA=5.72,STAT.D=Abs.,ExtBa=13.14
27/09/2019,03:41:15,TEMP=13.9,BA=5.72,STAT.b=Abs.
27/09/2019,03:56:13,TEMP=13.9,BA=5.72,STAT.b=Abs.
27/09/2019,04:11:14,TEMP=13.9,BA=5.72,STAT.b=Abs.
27/09/2019,04:26:21,TEMP=14.8,BA=5.72,STAT.D=Abs.,ExtBa=13.74
27/09/2019,04:41:20,TEMP=14.7,BA=5.72,STAT.F,ExtBa=13.76
27/09/2019,04:42:51,TEMP=14.8,BA=5.72,STAT.b=Abs.
27/09/2019,04:56:22,TEMP=12.9,BA=5.72,STAT.D=Abs.,ExtBa=13.72
27/09/2019,05:11:21,TEMP=12.3,BA=5.72,STAT.D=Abs.,ExtBa=13.75
27/09/2019,05:12:48,TEMP=12.4,BA=5.72,STAT.b=Abs.
27/09/2019,05:26:22,TEMP=12.2,BA=5.72,STAT.D=Abs.,ExtBa=13.75
27/09/2019,05:41:24,TEMP=12.4,BA=5.72,STAT.F,ExtBa=13.74
27/09/2019,05:56:23,TEMP=12.3,BA=5.72,STAT.D=Abs.,ExtBa=13.76
27/09/2019,06:11:21,TEMP=13.8,BA=5.72,STAT.D=Abs.,ExtBa=13.78
27/09/2019,06:26:11,TEMP=14.0,BA=5.72,STAT.b=Abs.
27/09/2019,06:41:26,TEMP=14.8,BA=5.72,STAT.F,ExtBa=13.76
27/09/2019,06:56:15,TEMP=15.1,BA=5.72,STAT.b=Abs.
27/09/2019,07:11:22,TEMP=15.3,BA=5.72,STAT.D=Abs.,ExtBa=13.71
27/09/2019,07:26:23,TEMP=13.7,BA=5.72,STAT.D=Abs.,ExtBa=13.73
27/09/2019,07:41:24,TEMP=14.0,BA=5.72,STAT.F,ExtBa=13.73
27/09/2019,07:49:10,TEMP=14.8,BA=5.72,STAT.b=Abs.
27/09/2019,07:56:24,TEMP=15.0,BA=5.72,STAT.D=Abs.,ExtBa=13.12
27/09/2019,08:11:22,TEMP=15.0,BA=5.72,STAT.D=Abs.,ExtBa=13.41
27/09/2019,08:26:22,TEMP=15.1,BA=5.72,STAT.D=Abs.,ExtBa=13.56
27/09/2019,08:41:23,TEMP=14.8,BA=5.72,STAT.F,ExtBa=13.60
27/09/2019,08:48:54,TEMP=15.0,BA=5.72,STAT.b=Abs.
27/09/2019,08:56:23,TEMP=14.3,BA=5.72,STAT.D=Abs.,ExtBa=13.12
27/09/2019,09:11:21,TEMP=12.8,BA=5.72,STAT.D=Abs.,ExtBa=13.43
27/09/2019,09:26:21,TEMP=12.7,BA=5.72,STAT.D=Abs.,ExtBa=13.57
27/09/2019,09:41:23,TEMP=11.5,BA=5.72,STAT.F,ExtBa=13.66
27/09/2019,09:49:31,TEMP=12.1,BA=5.72,STAT.b=Abs.
27/09/2019,09:56:15,TEMP=12.1,BA=5.72,STAT.b=Abs.
27/09/2019,10:09:23,TEMP=12.8,BA=5.72,STAT.B=Abs.,ExtBa=13.39
27/09/2019,10:25:42,TEMP=12.8,BA=5.72,STAT.A=Abs.,ExtBa=13.12
27/09/2019,10:38:41,TEMP=13.0,BA=5.72,STAT.A=Abs.,ExtBa=13.34
27/09/2019,10:49:21,TEMP=13.0,BA=5.68,STAT.A=Abs.,ExtBa=13.39
27/09/2019,10:58:17,TEMP=13.2,BA=5.68,STAT.A=Abs.,ExtBa=13.42
27/09/2019,11:05:53,TEMP=13.3,BA=5.72,STAT.C=Abs.,ExtBa=13.43
27/09/2019,11:16:25,TEMP=14.0,BA=5.68,STAT.A=Abs.,ExtBa=12.76
27/09/2019,11:18:14,TEMP=14.1,BA=5.68,STAT.A=Abs.,ExtBa=12.80
27/09/2019,11:23:15,TEMP=13.8,BA=5.72,STAT.A=Abs.,ExtBa=12.97
27/09/2019,11:27:44,TEMP=13.7,BA=5.72,STAT.A=Abs.,ExtBa=13.00
27/09/2019,11:31:45,TEMP=13.6,BA=5.72,STAT.B=Abs.,ExtBa=13.00
27/09/2019,11:40:09,TEMP=13.4,BA=5.68,STAT.A=Abs.,ExtBa=12.87
27/09/2019,11:46:49,TEMP=13.1,BA=5.68,STAT.A=Abs.,ExtBa=13.03
27/09/2019,11:52:13,TEMP=13.1,BA=5.72,STAT.A=Abs.,ExtBa=13.08
27/09/2019,11:56:43,TEMP=13.1,BA=5.72,STAT.A=Abs.,ExtBa=13.13
27/09/2019,12:00:30,TEMP=13.1,BA=5.72,STAT.A=Abs.,ExtBa=13.16
27/09/2019,12:03:44,TEMP=13.0,BA=5.72,STAT.A=Abs.,ExtBa=13.17